#�ϑ�����,���ϕ���,���ϕ���,�ő啗��,�ő啗����������,�ő�u�ԕ���,�ő�u�ԕ�����������
#(�N����),(m/s)   ,(16����),(m/s)   ,(16����)        ,(m/s)       ,(16����)            
2013/10/9 0:01,4,7,4.1,6,6.7,8
2013/10/9 0:02,3.9,7,3.9,6,5.8,6
2013/10/9 0:03,3.8,7,3.9,6,6.8,8
2013/10/9 0:04,3.8,7,3.9,6,7.6,7
2013/10/9 0:05,3.9,7,4,6,10.1,6
2013/10/9 0:06,3.7,7,3.9,6,5.6,8
2013/10/9 0:07,3.6,7,3.7,6,3.6,9
2013/10/9 0:08,3.6,7,3.6,6,7.7,7
2013/10/9 0:09,3.5,7,3.6,7,3.9,5
2013/10/9 0:10,3.6,7,3.6,7,5.8,7
2013/10/9 0:11,3.6,7,3.6,7,6.7,8
2013/10/9 0:12,3.8,7,3.8,7,7.7,6
2013/10/9 0:13,3.7,7,3.8,7,7,8
2013/10/9 0:14,3.9,6,3.9,7,8.9,5
2013/10/9 0:15,3.9,6,3.9,7,7.9,6
2013/10/9 0:16,4,6,4,6,6.9,8
2013/10/9 0:17,4.1,6,4.2,6,3.6,7
2013/10/9 0:18,4,6,4.2,6,3.5,6
2013/10/9 0:19,4.1,6,4.1,6,6.7,6
2013/10/9 0:20,4.1,6,4.1,6,5.2,7
2013/10/9 0:21,4,6,4.1,6,4.4,7
2013/10/9 0:22,3.7,6,4,6,3.7,5
2013/10/9 0:23,3.8,6,3.8,6,5.6,5
2013/10/9 0:24,3.7,6,3.9,6,8.6,4
2013/10/9 0:25,3.4,6,3.7,6,4.7,8
2013/10/9 0:26,3.2,6,3.4,6,4.7,7
2013/10/9 0:27,3.2,6,3.2,6,6.3,8
2013/10/9 0:28,3.1,6,3.2,6,2.9,4
2013/10/9 0:29,3,6,3.1,6,3.9,7
2013/10/9 0:30,2.9,6,3,6,5.5,6
2013/10/9 0:31,2.9,6,2.9,6,5.1,6
2013/10/9 0:32,3.1,6,3.1,6,4.7,5
2013/10/9 0:33,3,6,3.1,6,5.6,7
2013/10/9 0:34,2.8,6,2.9,6,5.4,5
2013/10/9 0:35,3,6,3,6,7.6,4
2013/10/9 0:36,3.1,6,3.1,6,7.6,6
2013/10/9 0:37,3.2,6,3.2,6,6.9,6
2013/10/9 0:38,3.5,6,3.5,6,5.6,4
2013/10/9 0:39,3.4,5,3.5,6,4.2,5
2013/10/9 0:40,3.5,6,3.5,6,10.6,8
2013/10/9 0:41,3.8,6,3.8,6,11.9,7
2013/10/9 0:42,3.8,6,3.8,6,7.8,8
2013/10/9 0:43,3.9,6,3.9,6,8.3,6
2013/10/9 0:44,4,6,4,6,8.6,7
2013/10/9 0:45,4,6,4,6,10.5,8
2013/10/9 0:46,4.1,6,4.1,6,8.3,7
2013/10/9 0:47,4,7,4.1,6,8.6,7
2013/10/9 0:48,4,7,4,6,5.4,7
2013/10/9 0:49,4,7,4,6,7.1,6
2013/10/9 0:50,4.1,7,4.1,6,7.5,6
2013/10/9 0:51,4.1,7,4.2,7,8.7,6
2013/10/9 0:52,4.1,7,4.1,7,4.7,6
2013/10/9 0:53,4,7,4.1,7,5.7,5
2013/10/9 0:54,4.1,6,4.1,7,9.2,6
2013/10/9 0:55,4.1,6,4.2,7,7.9,4
2013/10/9 0:56,4.2,6,4.2,7,7.2,4
2013/10/9 0:57,4.3,6,4.3,6,7.5,5
2013/10/9 0:58,4.5,6,4.5,6,8.6,4
2013/10/9 0:59,4.9,5,4.9,5,10.2,6
2013/10/9 1:00,4.9,5,5,5,7.9,6
2013/10/9 1:01,4.9,5,4.9,5,9.1,5
2013/10/9 1:02,5,5,5,5,6.7,7
2013/10/9 1:03,4.9,6,5,5,8.3,6
2013/10/9 1:04,4.8,6,5,5,5.8,5
2013/10/9 1:05,4.7,6,4.8,5,6.3,3
2013/10/9 1:06,4.7,6,4.7,5,9.9,5
2013/10/9 1:07,4.6,6,4.7,5,7.8,5
2013/10/9 1:08,4.4,6,4.5,5,6.2,5
2013/10/9 1:09,4.2,6,4.4,5,7.7,7
2013/10/9 1:10,4.3,6,4.4,5,10.2,5
2013/10/9 1:11,4.4,6,4.4,5,8.7,6
2013/10/9 1:12,4.5,6,4.5,5,7.5,6
2013/10/9 1:13,4.6,6,4.6,6,6.8,5
2013/10/9 1:14,4.6,6,4.7,6,8.9,4
2013/10/9 1:15,4.4,6,4.6,6,5.4,7
2013/10/9 1:16,4.3,6,4.4,6,9.1,6
2013/10/9 1:17,4.6,6,4.6,6,8.4,6
2013/10/9 1:18,4.4,6,4.6,6,6.9,7
2013/10/9 1:19,4.2,6,4.4,6,5.8,5
2013/10/9 1:20,4.1,6,4.2,6,7.2,5
2013/10/9 1:21,3.9,6,4.1,6,8.3,5
2013/10/9 1:22,3.8,6,3.9,6,7.8,7
2013/10/9 1:23,3.9,6,3.9,6,8.3,5
2013/10/9 1:24,3.9,6,3.9,6,6.2,6
2013/10/9 1:25,4,6,4,6,6,5
2013/10/9 1:26,4.1,6,4.2,6,6.9,5
2013/10/9 1:27,4,6,4.1,6,6.1,5
2013/10/9 1:28,4.1,6,4.1,6,7.2,6
2013/10/9 1:29,4.4,6,4.4,6,10.2,7
2013/10/9 1:30,4.5,6,4.5,6,11.6,7
2013/10/9 1:31,4.5,6,4.5,6,7.9,6
2013/10/9 1:32,4.6,6,4.6,6,8.4,6
2013/10/9 1:33,4.4,6,4.6,6,5.8,6
2013/10/9 1:34,4.3,6,4.4,6,5.1,7
2013/10/9 1:35,4.4,6,4.5,6,8.4,6
2013/10/9 1:36,4.4,6,4.4,6,6.9,5
2013/10/9 1:37,4.3,6,4.4,6,6,7
2013/10/9 1:38,4.3,6,4.3,6,6.2,5
2013/10/9 1:39,4.3,6,4.3,6,6.9,5
2013/10/9 1:40,4,6,4.2,6,5.2,5
2013/10/9 1:41,3.9,6,4,6,6.4,5
2013/10/9 1:42,3.5,6,3.8,6,4.8,8
2013/10/9 1:43,3.6,6,3.6,6,8.3,7
2013/10/9 1:44,3.7,6,3.7,6,6.7,6
2013/10/9 1:45,3.5,6,3.7,6,6.3,6
2013/10/9 1:46,3.5,6,3.6,6,6,7
2013/10/9 1:47,3.5,6,3.5,6,6.7,5
2013/10/9 1:48,3.7,6,3.7,6,10.1,7
2013/10/9 1:49,3.7,6,3.7,6,7.2,6
2013/10/9 1:50,3.9,6,3.9,6,8.9,7
2013/10/9 1:51,4,6,4,6,8.2,6
2013/10/9 1:52,4.1,6,4.2,6,6.5,7
2013/10/9 1:53,4.1,6,4.2,6,7,7
2013/10/9 1:54,4.2,6,4.2,6,5.5,6
2013/10/9 1:55,4.2,6,4.3,6,6.4,7
2013/10/9 1:56,4,6,4.2,6,4.3,5
2013/10/9 1:57,4,6,4,6,6.2,8
2013/10/9 1:58,3.7,6,4,6,5.1,6
2013/10/9 1:59,3.5,6,3.7,6,4.1,6
2013/10/9 2:00,3.4,6,3.5,6,5.1,6
2013/10/9 2:01,3.4,6,3.4,6,8.3,8
2013/10/9 2:02,3.4,6,3.4,6,5,6
2013/10/9 2:03,3.6,6,3.6,6,9.8,5
2013/10/9 2:04,3.9,6,3.9,6,10.3,6
2013/10/9 2:05,3.9,6,3.9,6,6.7,6
2013/10/9 2:06,4.3,6,4.3,6,8.1,8
2013/10/9 2:07,4.3,6,4.3,6,7.7,7
2013/10/9 2:08,4.3,6,4.4,6,7.5,8
2013/10/9 2:09,4.6,6,4.6,6,8.4,6
2013/10/9 2:10,4.8,6,4.8,6,7.6,5
2013/10/9 2:11,4.8,6,4.8,6,6.8,6
2013/10/9 2:12,4.8,6,4.9,6,10.1,8
2013/10/9 2:13,4.6,6,4.8,6,7,6
2013/10/9 2:14,4.5,6,4.6,6,8.2,6
2013/10/9 2:15,4.8,6,4.8,6,9.5,8
2013/10/9 2:16,4.7,6,4.8,6,7.9,6
2013/10/9 2:17,4.6,6,4.7,6,5.8,8
2013/10/9 2:18,4.7,6,4.7,6,7.8,8
2013/10/9 2:19,4.8,6,4.8,6,8.9,7
2013/10/9 2:20,4.7,6,4.8,6,7.7,3
2013/10/9 2:21,4.8,6,4.8,6,7.5,6
2013/10/9 2:22,4.8,6,4.8,6,7.5,7
2013/10/9 2:23,4.9,6,5,6,6.3,6
2013/10/9 2:24,4.6,6,4.9,6,6.5,9
2013/10/9 2:25,4.3,6,4.6,6,5.6,5
2013/10/9 2:26,4.3,6,4.3,6,9.7,5
2013/10/9 2:27,4.5,6,4.5,6,11.5,5
2013/10/9 2:28,4.6,6,4.7,6,11,6
2013/10/9 2:29,4.2,6,4.6,6,6.5,8
2013/10/9 2:30,4.5,6,4.5,6,12.7,6
2013/10/9 2:31,4.4,6,4.5,6,11.1,8
2013/10/9 2:32,4.3,6,4.4,6,6.8,8
2013/10/9 2:33,4.3,6,4.4,6,7.4,6
2013/10/9 2:34,4.1,6,4.2,6,3.9,8
2013/10/9 2:35,4.2,7,4.2,6,9.1,7
2013/10/9 2:36,4.3,7,4.3,6,9,6
2013/10/9 2:37,4,7,4.3,6,6.5,5
2013/10/9 2:38,4.1,7,4.1,6,10.5,6
2013/10/9 2:39,4.2,7,4.2,6,7.5,6
2013/10/9 2:40,3.9,7,4.2,6,6.8,6
2013/10/9 2:41,3.8,7,3.8,6,6.1,8
2013/10/9 2:42,3.7,7,3.9,6,5.8,9
2013/10/9 2:43,3.6,7,3.7,7,4.7,7
2013/10/9 2:44,3.7,7,3.7,7,6.2,8
2013/10/9 2:45,3.7,7,3.8,7,7.9,7
2013/10/9 2:46,3.5,7,3.8,7,5.8,7
2013/10/9 2:47,3.5,7,3.5,7,5.4,9
2013/10/9 2:48,3.5,7,3.6,7,8.3,6
2013/10/9 2:49,3.8,7,3.8,7,12.6,7
2013/10/9 2:50,3.9,8,4,8,11.8,7
2013/10/9 2:51,4,7,4.1,8,8.3,8
2013/10/9 2:52,4.3,7,4.3,7,9.3,7
2013/10/9 2:53,4.7,7,4.7,7,10.2,8
2013/10/9 2:54,4.9,7,4.9,7,6.8,7
2013/10/9 2:55,4.7,7,4.9,7,5.2,6
2013/10/9 2:56,4.6,7,4.7,7,5.2,6
2013/10/9 2:57,4.8,7,4.8,7,7.8,9
2013/10/9 2:58,5,7,5,7,13.5,8
2013/10/9 2:59,5.1,7,5.2,7,10.9,8
2013/10/9 3:00,4.8,7,5,7,6.1,9
2013/10/9 3:01,4.7,7,4.8,7,7.8,5
2013/10/9 3:02,4.6,7,4.7,7,6.8,7
2013/10/9 3:03,4.5,7,4.6,7,9.4,6
2013/10/9 3:04,4.4,7,4.5,7,10.3,8
2013/10/9 3:05,4.6,7,4.6,7,5.4,5
2013/10/9 3:06,4.7,7,4.7,7,8.1,8
2013/10/9 3:07,4.7,7,4.7,7,9,8
2013/10/9 3:08,4.6,7,4.7,7,9.2,7
2013/10/9 3:09,4.3,7,4.5,7,6.5,8
2013/10/9 3:10,4.4,7,4.5,7,7.7,7
2013/10/9 3:11,4.5,7,4.5,7,9.8,9
2013/10/9 3:12,4.5,7,4.6,7,10.9,7
2013/10/9 3:13,4.3,7,4.5,7,5.8,9
2013/10/9 3:14,4.6,7,4.6,7,10.6,7
2013/10/9 3:15,4.8,7,4.8,7,11.1,5
2013/10/9 3:16,4.7,7,4.8,7,11.5,6
2013/10/9 3:17,4.7,7,4.9,7,10.5,6
2013/10/9 3:18,4.5,7,4.7,7,8.1,8
2013/10/9 3:19,4.5,7,4.6,7,8.7,9
2013/10/9 3:20,4.6,7,4.6,7,10.8,6
2013/10/9 3:21,4.8,7,4.9,7,12.1,6
2013/10/9 3:22,4.7,7,4.8,7,6.3,6
2013/10/9 3:23,4.8,7,4.8,7,7.1,6
2013/10/9 3:24,4.6,7,4.7,7,11,5
2013/10/9 3:25,4.3,7,4.5,7,8.1,6
2013/10/9 3:26,4.3,7,4.4,7,5.6,8
2013/10/9 3:27,4.2,7,4.3,7,6.3,8
2013/10/9 3:28,4.2,7,4.3,7,9.4,7
2013/10/9 3:29,4.2,7,4.3,7,7.1,9
2013/10/9 3:30,4.3,7,4.4,7,9,7
2013/10/9 3:31,4.1,7,4.3,7,8.6,8
2013/10/9 3:32,4.2,7,4.3,7,8.7,7
2013/10/9 3:33,4.2,7,4.3,7,7.7,8
2013/10/9 3:34,4.5,7,4.5,7,14,6
2013/10/9 3:35,4.6,7,4.6,7,10.2,8
2013/10/9 3:36,4.7,7,4.7,7,7.1,6
2013/10/9 3:37,4.6,7,4.7,7,5,6
2013/10/9 3:38,4.6,7,4.7,7,6.3,4
2013/10/9 3:39,4.7,7,4.7,7,9.8,6
2013/10/9 3:40,4.6,7,4.8,7,11.8,6
2013/10/9 3:41,4.3,7,4.5,7,3.8,6
2013/10/9 3:42,4.4,7,4.4,7,12.2,6
2013/10/9 3:43,4.6,7,4.6,7,12.4,7
2013/10/9 3:44,4.4,7,4.7,7,11.5,6
2013/10/9 3:45,4.2,7,4.4,7,6.1,6
2013/10/9 3:46,4.3,6,4.3,7,9.1,5
2013/10/9 3:47,4.5,6,4.5,7,9.9,7
2013/10/9 3:48,4.5,6,4.5,7,6.8,7
2013/10/9 3:49,4.4,6,4.5,7,5.5,6
2013/10/9 3:50,4.3,6,4.3,7,7.6,7
2013/10/9 3:51,4.5,6,4.5,7,8.9,6
2013/10/9 3:52,4.5,7,4.6,7,13.1,7
2013/10/9 3:53,4.3,7,4.5,7,10.1,7
2013/10/9 3:54,4.1,7,4.2,6,7.1,9
2013/10/9 3:55,4.4,7,4.4,6,10.7,6
2013/10/9 3:56,4.3,7,4.4,6,7,8
2013/10/9 3:57,4.1,7,4.3,6,7.4,8
2013/10/9 3:58,4.3,7,4.3,6,9.7,8
2013/10/9 3:59,4.5,7,4.5,6,10.9,8
2013/10/9 4:00,4.6,7,4.7,7,7.5,6
2013/10/9 4:01,4.7,7,4.8,7,10.1,8
2013/10/9 4:02,4.5,7,4.7,7,5.2,7
2013/10/9 4:03,4.3,7,4.5,7,5.6,9
2013/10/9 4:04,4.2,7,4.3,7,6.4,5
2013/10/9 4:05,4.2,7,4.2,7,8.2,6
2013/10/9 4:06,4.5,7,4.5,7,9.9,7
2013/10/9 4:07,4.7,7,4.7,7,12.7,8
2013/10/9 4:08,4.6,7,4.6,7,10.2,8
2013/10/9 4:09,4.6,7,4.6,7,11.6,7
2013/10/9 4:10,4.8,7,4.8,7,10.2,8
2013/10/9 4:11,4.9,7,4.9,7,9.8,7
2013/10/9 4:12,5.2,7,5.2,7,9.8,7
2013/10/9 4:13,5.3,7,5.3,7,7.9,8
2013/10/9 4:14,5.5,7,5.5,7,7.2,7
2013/10/9 4:15,5.4,7,5.5,7,7.8,7
2013/10/9 4:16,5.4,7,5.4,7,12.3,6
2013/10/9 4:17,5.6,7,5.6,7,12.3,7
2013/10/9 4:18,5.6,7,5.6,7,8.7,8
2013/10/9 4:19,5.6,7,5.6,7,10.7,8
2013/10/9 4:20,5.6,7,5.6,7,9.7,9
2013/10/9 4:21,5.9,7,5.9,7,11,7
2013/10/9 4:22,5.8,7,6,7,9.9,6
2013/10/9 4:23,5.8,7,5.8,7,9,6
2013/10/9 4:24,5.9,7,5.9,7,10.1,8
2013/10/9 4:25,6,7,6.1,7,9.9,8
2013/10/9 4:26,5.9,7,6,7,7.6,8
2013/10/9 4:27,5.5,7,5.8,7,7.1,8
2013/10/9 4:28,5.5,7,5.5,7,7.7,8
2013/10/9 4:29,5.4,7,5.6,7,7.2,8
2013/10/9 4:30,5.1,8,5.4,7,7.1,7
2013/10/9 4:31,4.7,8,5.1,7,8.2,9
2013/10/9 4:32,4.6,8,4.7,7,8.2,8
2013/10/9 4:33,4.6,8,4.6,7,6.9,9
2013/10/9 4:34,4.4,8,4.6,7,6.1,8
2013/10/9 4:35,4.3,8,4.4,7,5.8,8
2013/10/9 4:36,4.2,8,4.3,7,6.1,8
2013/10/9 4:37,4.2,8,4.3,7,6.4,6
2013/10/9 4:38,4.1,8,4.2,7,7.7,8
2013/10/9 4:39,4.1,8,4.1,7,8.3,8
2013/10/9 4:40,4,8,4.1,8,7.2,8
2013/10/9 4:41,4,8,4,8,7,7
2013/10/9 4:42,3.9,8,4.1,8,4.9,7
2013/10/9 4:43,3.8,8,3.9,8,4.9,8
2013/10/9 4:44,3.7,8,3.8,8,5.2,8
2013/10/9 4:45,3.7,8,3.7,8,7.4,8
2013/10/9 4:46,3.6,8,3.7,8,6.5,8
2013/10/9 4:47,3.6,8,3.6,8,5.1,8
2013/10/9 4:48,3.4,8,3.6,8,4.8,9
2013/10/9 4:49,3.1,8,3.4,8,4.3,8
2013/10/9 4:50,3.1,8,3.2,8,5,7
2013/10/9 4:51,2.8,8,3.1,8,4.8,8
2013/10/9 4:52,2.8,8,2.8,8,4.9,8
2013/10/9 4:53,2.6,8,2.7,8,3.8,8
2013/10/9 4:54,2.6,8,2.7,8,5.7,8
2013/10/9 4:55,2.6,8,2.7,8,4.8,8
2013/10/9 4:56,2.5,8,2.6,8,4.4,8
2013/10/9 4:57,2.3,8,2.5,8,3.5,8
2013/10/9 4:58,2.3,9,2.4,8,3.3,8
2013/10/9 4:59,2.3,9,2.4,8,4.1,9
2013/10/9 5:00,2.3,9,2.3,8,4.9,9
2013/10/9 5:01,2.4,9,2.4,8,5.7,8
2013/10/9 5:02,2.4,9,2.4,8,3.5,9
2013/10/9 5:03,2.5,9,2.5,8,3.8,10
2013/10/9 5:04,2.5,9,2.5,8,4.1,10
2013/10/9 5:05,2.4,10,2.5,8,3.6,10
2013/10/9 5:06,2.3,10,2.4,8,3.3,10
2013/10/9 5:07,2.3,10,2.3,9,2.9,9
2013/10/9 5:08,2.3,10,2.3,9,3.5,9
2013/10/9 5:09,2.3,10,2.3,9,3.5,10
2013/10/9 5:10,2.2,10,2.3,9,2.7,9
2013/10/9 5:11,2,10,2.2,9,3.2,9
2013/10/9 5:12,1.9,10,2,9,2.5,8
2013/10/9 5:13,1.8,9,1.9,9,2.4,8
2013/10/9 5:14,1.7,9,1.7,9,2.4,9
2013/10/9 5:15,1.5,9,1.6,10,1.5,9
2013/10/9 5:16,1.3,9,1.5,10,1.4,10
2013/10/9 5:17,1.2,9,1.3,10,0.4,9
2013/10/9 5:18,1,9,1.2,10,1.5,10
2013/10/9 5:19,0.9,9,1,10,1.4,9
2013/10/9 5:20,0.8,9,0.9,10,1.5,8
2013/10/9 5:21,0.8,9,0.8,10,1.6,10
2013/10/9 5:22,0.8,9,0.8,10,1.4,10
2013/10/9 5:23,0.7,10,0.8,9,1.6,6
2013/10/9 5:24,0.7,10,0.7,9,2,10
2013/10/9 5:25,0.7,10,0.7,9,1.4,7
2013/10/9 5:26,0.7,9,0.7,9,1.1,8
2013/10/9 5:27,0.8,9,0.8,9,2,6
2013/10/9 5:28,0.9,9,0.9,9,1.9,7
2013/10/9 5:29,1,9,1,9,2,7
2013/10/9 5:30,1,8,1,9,1.6,7
2013/10/9 5:31,1,8,1,9,1.8,7
2013/10/9 5:32,1,8,1,9,2,9
2013/10/9 5:33,1,8,1,9,1.1,9
2013/10/9 5:34,1,8,1,9,2.2,10
2013/10/9 5:35,1.2,8,1.2,8,3,10
2013/10/9 5:36,1.3,8,1.3,8,2.1,8
2013/10/9 5:37,1.3,9,1.3,8,2.4,9
2013/10/9 5:38,1.3,9,1.3,8,2.6,9
2013/10/9 5:39,1.3,9,1.3,8,4.2,9
2013/10/9 5:40,1.5,9,1.5,9,4.4,9
2013/10/9 5:41,1.7,9,1.7,9,3.5,8
2013/10/9 5:42,1.8,9,1.8,9,4.4,8
2013/10/9 5:43,2.1,9,2.1,9,4.5,9
2013/10/9 5:44,2.1,9,2.1,9,3.7,9
2013/10/9 5:45,2.1,9,2.1,9,4.5,7
2013/10/9 5:46,2.1,9,2.1,9,3.6,7
2013/10/9 5:47,2.3,9,2.3,9,4.3,8
2013/10/9 5:48,2.4,9,2.4,9,4.3,9
2013/10/9 5:49,2.4,9,2.4,9,3.7,10
2013/10/9 5:50,2.2,9,2.3,9,2,8
2013/10/9 5:51,2.1,9,2.2,9,3.3,8
2013/10/9 5:52,2,9,2.1,9,3.6,9
2013/10/9 5:53,1.9,9,2,9,3.9,11
2013/10/9 5:54,2.1,9,2.1,9,6,9
2013/10/9 5:55,2.1,9,2.1,9,4.2,8
2013/10/9 5:56,2.3,9,2.3,9,5,10
2013/10/9 5:57,2.3,9,2.3,9,4.9,9
2013/10/9 5:58,2.3,9,2.4,9,4.2,9
2013/10/9 5:59,2.3,9,2.3,9,3.9,9
2013/10/9 6:00,2.5,9,2.5,9,5.2,9
2013/10/9 6:01,2.6,9,2.6,9,4.2,9
2013/10/9 6:02,2.7,9,2.7,9,5.2,9
2013/10/9 6:03,2.8,9,2.8,9,4.9,9
2013/10/9 6:04,2.7,9,2.8,9,5.6,8
2013/10/9 6:05,2.7,9,2.7,9,4.3,10
2013/10/9 6:06,2.5,9,2.7,9,3.6,9
2013/10/9 6:07,2.4,9,2.5,9,3.6,9
2013/10/9 6:08,2.4,9,2.4,9,5.4,8
2013/10/9 6:09,2.5,9,2.5,9,3.9,10
2013/10/9 6:10,2.4,9,2.5,9,4.4,8
2013/10/9 6:11,2.4,9,2.5,9,5.1,11
2013/10/9 6:12,2.2,9,2.4,9,3,10
2013/10/9 6:13,2.1,9,2.2,9,1.8,8
2013/10/9 6:14,1.9,9,2.1,9,3.1,10
2013/10/9 6:15,2,9,2,9,3.5,9
2013/10/9 6:16,2.1,10,2.1,9,4.5,10
2013/10/9 6:17,2,10,2.1,9,3.6,10
2013/10/9 6:18,1.9,10,2,9,3.6,10
2013/10/9 6:19,1.9,10,2,9,4.9,9
2013/10/9 6:20,2,10,2,9,5.6,9
2013/10/9 6:21,2.1,9,2.1,9,5.6,9
2013/10/9 6:22,2.4,9,2.4,9,7,9
2013/10/9 6:23,2.6,10,2.6,10,5,9
2013/10/9 6:24,2.7,10,2.7,10,4.7,10
2013/10/9 6:25,2.6,10,2.7,10,3.9,9
2013/10/9 6:26,2.5,10,2.7,10,4.4,10
2013/10/9 6:27,2.6,10,2.6,10,3.7,9
2013/10/9 6:28,2.7,10,2.7,10,5.5,9
2013/10/9 6:29,2.8,9,2.8,9,4.7,9
2013/10/9 6:30,2.8,9,2.8,9,4.1,9
2013/10/9 6:31,2.7,9,2.8,9,3.7,8
2013/10/9 6:32,2.6,9,2.7,9,3.7,8
2013/10/9 6:33,2.5,9,2.5,9,4.1,9
2013/10/9 6:34,2.4,9,2.5,9,3.1,9
2013/10/9 6:35,2.3,9,2.3,9,3.8,8
2013/10/9 6:36,2.3,9,2.3,9,4.4,9
2013/10/9 6:37,2.3,9,2.3,9,5.4,8
2013/10/9 6:38,2.3,9,2.4,9,4.3,8
2013/10/9 6:39,2.2,9,2.3,9,3.1,10
2013/10/9 6:40,2.2,9,2.2,9,3.9,10
2013/10/9 6:41,2,9,2.1,9,2.5,9
2013/10/9 6:42,1.9,10,2,9,1.8,12
2013/10/9 6:43,1.7,10,1.9,9,0.9,12
2013/10/9 6:44,1.6,11,1.7,9,0.1,13
2013/10/9 6:45,1.4,10,1.6,9,0.5,10
2013/10/9 6:46,1.4,10,1.4,9,3,7
2013/10/9 6:47,1.3,10,1.4,9,2.4,8
2013/10/9 6:48,1.2,10,1.3,9,4.4,9
2013/10/9 6:49,1.2,10,1.2,9,3.5,8
2013/10/9 6:50,1.2,10,1.2,9,4.2,10
2013/10/9 6:51,1.2,10,1.2,9,2.9,9
2013/10/9 6:52,1.2,9,1.2,10,2.2,8
2013/10/9 6:53,1.3,9,1.3,10,2,8
2013/10/9 6:54,1.4,8,1.4,11,2.4,9
2013/10/9 6:55,1.7,9,1.7,9,4.1,9
2013/10/9 6:56,1.8,9,1.8,9,5,9
2013/10/9 6:57,1.9,9,1.9,9,3.8,9
2013/10/9 6:58,1.8,9,1.8,9,2.7,8
2013/10/9 6:59,1.8,9,1.8,9,3.3,7
2013/10/9 7:00,1.9,9,1.9,9,3.7,8
2013/10/9 7:01,1.9,9,1.9,9,3.5,9
2013/10/9 7:02,1.9,9,1.9,9,2.7,10
2013/10/9 7:03,2,9,2,9,2.4,9
2013/10/9 7:04,2,9,2,9,2.6,9
2013/10/9 7:05,1.9,9,2,9,2.9,9
2013/10/9 7:06,1.9,9,2,9,4.7,8
2013/10/9 7:07,2,9,2,9,4.2,9
2013/10/9 7:08,2,9,2,9,2.5,8
2013/10/9 7:09,2.1,9,2.1,9,5.7,7
2013/10/9 7:10,2.2,9,2.2,8,4.9,8
2013/10/9 7:11,2.2,9,2.2,8,3,9
2013/10/9 7:12,2.3,8,2.3,8,3.6,7
2013/10/9 7:13,2.2,8,2.2,8,2.7,8
2013/10/9 7:14,2.2,8,2.2,8,3.1,9
2013/10/9 7:15,2.2,8,2.2,8,2.1,7
2013/10/9 7:16,2,8,2.2,8,1.5,10
2013/10/9 7:17,1.8,8,1.9,8,1.8,8
2013/10/9 7:18,1.7,8,1.7,8,3.1,9
2013/10/9 7:19,1.5,8,1.7,8,3.3,9
2013/10/9 7:20,1.4,8,1.5,8,2.9,10
2013/10/9 7:21,1.5,8,1.5,8,4.8,9
2013/10/9 7:22,1.6,9,1.6,8,4.7,9
2013/10/9 7:23,1.7,8,1.7,8,3.3,8
2013/10/9 7:24,1.6,9,1.7,8,2.5,8
2013/10/9 7:25,1.5,9,1.6,8,1.9,10
2013/10/9 7:26,1.6,9,1.6,8,1.6,7
2013/10/9 7:27,1.6,9,1.6,8,2.1,8
2013/10/9 7:28,1.7,9,1.7,8,3.2,8
2013/10/9 7:29,1.8,9,1.8,9,5,9
2013/10/9 7:30,1.9,9,1.9,9,4.3,8
2013/10/9 7:31,1.8,9,1.9,9,3.6,9
2013/10/9 7:32,1.7,8,1.8,9,3.5,8
2013/10/9 7:33,1.7,9,1.7,9,3.8,8
2013/10/9 7:34,1.8,8,1.8,9,4.2,8
2013/10/9 7:35,1.9,8,1.9,9,2.4,8
2013/10/9 7:36,1.9,8,1.9,9,2.5,7
2013/10/9 7:37,2,8,2,8,2.5,8
2013/10/9 7:38,2.1,8,2.1,8,3.7,8
2013/10/9 7:39,2,8,2.1,8,3.7,8
2013/10/9 7:40,1.9,8,2,8,2.9,8
2013/10/9 7:41,1.9,8,1.9,8,3.2,8
2013/10/9 7:42,2.1,8,2.1,8,3.9,8
2013/10/9 7:43,2.1,8,2.1,8,3,8
2013/10/9 7:44,2,8,2.1,8,2.5,8
2013/10/9 7:45,2,8,2,8,1.8,7
2013/10/9 7:46,1.9,8,2,8,1.5,7
2013/10/9 7:47,2,7,2,8,2.9,6
2013/10/9 7:48,1.9,7,1.9,8,3,5
2013/10/9 7:49,1.8,7,1.9,8,2.2,4
2013/10/9 7:50,1.8,6,1.9,8,2.4,6
2013/10/9 7:51,1.8,6,1.8,8,3,5
2013/10/9 7:52,1.6,6,1.8,8,2.5,6
2013/10/9 7:53,1.5,6,1.6,8,1.6,6
2013/10/9 7:54,1.4,6,1.5,8,1.5,8
2013/10/9 7:55,1.3,6,1.4,8,0.5,3
2013/10/9 7:56,1.3,6,1.3,8,2,7
2013/10/9 7:57,1.2,6,1.3,7,1.8,5
2013/10/9 7:58,1.2,6,1.2,7,1.6,6
2013/10/9 7:59,1.2,6,1.2,7,2,8
2013/10/9 8:00,1.2,6,1.2,6,2.4,8
2013/10/9 8:01,1.1,6,1.2,6,1.3,7
2013/10/9 8:02,1,7,1.1,6,1.5,9
2013/10/9 8:03,1,6,1,6,1.1,8
2013/10/9 8:04,1,7,1,6,3.5,7
2013/10/9 8:05,1.2,7,1.2,6,3.7,8
2013/10/9 8:06,1.3,7,1.3,6,3.6,8
2013/10/9 8:07,1.4,7,1.4,7,3.1,8
2013/10/9 8:08,1.5,8,1.5,7,3.1,8
2013/10/9 8:09,1.6,8,1.6,8,3,8
2013/10/9 8:10,1.6,8,1.6,8,2.4,7
2013/10/9 8:11,1.6,8,1.6,8,2,7
2013/10/9 8:12,1.6,7,1.6,8,2.1,6
2013/10/9 8:13,1.7,7,1.7,7,2.1,5
2013/10/9 8:14,1.8,7,1.8,7,2.6,7
2013/10/9 8:15,1.9,7,1.9,7,4.7,8
2013/10/9 8:16,1.9,7,1.9,7,4.3,8
2013/10/9 8:17,2,7,2,7,4.8,8
2013/10/9 8:18,2.1,7,2.1,7,4.4,8
2013/10/9 8:19,2.1,7,2.2,7,4.5,8
2013/10/9 8:20,2.2,8,2.2,7,3.1,10
2013/10/9 8:21,2.3,8,2.3,8,5.4,8
2013/10/9 8:22,2.4,8,2.4,8,4.1,9
2013/10/9 8:23,2.5,8,2.5,8,3.7,7
2013/10/9 8:24,2.6,9,2.6,8,4.2,8
2013/10/9 8:25,2.6,9,2.6,8,4.1,8
2013/10/9 8:26,2.6,9,2.6,8,4.2,9
2013/10/9 8:27,2.6,9,2.6,8,5.5,9
2013/10/9 8:28,2.7,9,2.7,9,5.8,8
2013/10/9 8:29,2.8,9,2.8,9,6,10
2013/10/9 8:30,2.8,9,2.8,9,4.8,9
2013/10/9 8:31,2.8,9,2.9,9,4.4,7
2013/10/9 8:32,2.9,9,2.9,9,4.4,10
2013/10/9 8:33,2.8,9,2.9,9,3.6,9
2013/10/9 8:34,2.6,9,2.8,9,2.9,9
2013/10/9 8:35,2.6,9,2.6,9,3.7,10
2013/10/9 8:36,2.6,9,2.6,9,4.4,10
2013/10/9 8:37,2.5,10,2.6,9,3.7,10
2013/10/9 8:38,2.3,10,2.5,9,3.2,9
2013/10/9 8:39,2.1,10,2.3,9,2.7,9
2013/10/9 8:40,2.2,10,2.2,9,3.9,10
2013/10/9 8:41,2,10,2.2,9,4.1,9
2013/10/9 8:42,1.9,10,2,9,4.2,10
2013/10/9 8:43,1.9,10,2,9,3.8,10
2013/10/9 8:44,2,10,2,9,3.7,10
2013/10/9 8:45,2.1,10,2.1,9,4.2,11
2013/10/9 8:46,2,10,2.1,9,2.7,11
2013/10/9 8:47,1.8,11,1.9,10,1.8,11
2013/10/9 8:48,1.8,11,1.8,10,3.1,11
2013/10/9 8:49,1.9,11,1.9,10,2.9,9
2013/10/9 8:50,1.8,11,1.9,10,3,10
2013/10/9 8:51,1.9,11,1.9,10,4.4,10
2013/10/9 8:52,2.1,11,2.1,10,4.2,10
2013/10/9 8:53,2.2,11,2.2,11,4.8,10
2013/10/9 8:54,2.2,11,2.3,11,4.9,12
2013/10/9 8:55,2.1,11,2.2,11,2,10
2013/10/9 8:56,2,11,2.1,11,1.8,16
2013/10/9 8:57,2,11,2,11,1.3,15
2013/10/9 8:58,1.8,11,2,11,0.6,5
2013/10/9 8:59,1.7,11,1.8,11,0.6,12
2013/10/9 9:00,1.5,12,1.6,11,0.8,16
2013/10/9 9:01,1.4,12,1.5,11,1.5,14
2013/10/9 9:02,1.2,13,1.3,11,2.5,13
2013/10/9 9:03,1,13,1.2,11,2.4,13
2013/10/9 9:04,0.9,14,1,11,1.4,13
2013/10/9 9:05,0.8,14,0.8,11,3.1,8
2013/10/9 9:06,0.8,13,0.8,11,2.1,8
2013/10/9 9:07,0.9,12,0.9,11,2.5,9
2013/10/9 9:08,1,12,1,11,2.2,9
2013/10/9 9:09,1.1,12,1.1,11,1.3,10
2013/10/9 9:10,1.1,12,1.1,12,1.8,12
2013/10/9 9:11,1.1,11,1.1,13,1.4,11
2013/10/9 9:12,1.1,11,1.1,13,2.7,9
2013/10/9 9:13,1,11,1.1,12,1.5,11
2013/10/9 9:14,1.1,11,1.1,12,3.1,9
2013/10/9 9:15,1.1,11,1.1,12,2.1,13
2013/10/9 9:16,1.1,11,1.1,12,2.1,13
2013/10/9 9:17,1,11,1.1,12,2,9
2013/10/9 9:18,1.1,11,1.1,12,3.9,10
2013/10/9 9:19,1.2,11,1.2,11,3,11
2013/10/9 9:20,1.5,11,1.5,11,5.5,10
2013/10/9 9:21,1.6,11,1.6,11,5,10
2013/10/9 9:22,1.7,11,1.7,11,4.3,10
2013/10/9 9:23,1.9,11,1.9,11,3.7,11
2013/10/9 9:24,1.9,11,1.9,11,2.7,12
2013/10/9 9:25,1.9,11,1.9,11,2.2,12
2013/10/9 9:26,2,11,2,11,2.2,10
2013/10/9 9:27,2,11,2,11,2.4,13
2013/10/9 9:28,2,11,2,11,3.7,13
2013/10/9 9:29,2,11,2,11,3.7,12
2013/10/9 9:30,1.8,12,2,11,3,13
2013/10/9 9:31,1.8,12,1.8,11,3,14
2013/10/9 9:32,1.8,12,1.9,11,3.9,11
2013/10/9 9:33,1.7,12,1.8,11,2.4,12
2013/10/9 9:34,1.8,12,1.8,11,5.1,11
2013/10/9 9:35,1.9,12,1.9,11,4.1,12
2013/10/9 9:36,2.1,12,2.1,12,4.7,12
2013/10/9 9:37,2.1,12,2.1,12,2.6,9
2013/10/9 9:38,2,12,2.1,12,2.9,10
2013/10/9 9:39,1.9,12,2,12,1,10
2013/10/9 9:40,1.7,12,1.9,12,0.9,12
2013/10/9 9:41,1.8,12,1.8,12,4.3,12
2013/10/9 9:42,1.7,12,1.8,12,2.5,12
2013/10/9 9:43,1.6,12,1.7,12,1.6,8
2013/10/9 9:44,1.5,12,1.6,12,3.3,12
2013/10/9 9:45,1.6,12,1.6,12,3.6,13
2013/10/9 9:46,1.3,12,1.6,12,2.5,12
2013/10/9 9:47,1.3,12,1.3,12,1.8,9
2013/10/9 9:48,1.2,12,1.2,12,1.3,5
2013/10/9 9:49,1.2,12,1.2,12,1.9,8
2013/10/9 9:50,1.3,12,1.3,12,2.5,12
2013/10/9 9:51,1.3,12,1.3,12,3.7,11
2013/10/9 9:52,1.3,12,1.3,12,3,12
2013/10/9 9:53,1.4,12,1.4,12,1.9,10
2013/10/9 9:54,1.3,12,1.4,12,2.7,12
2013/10/9 9:55,1.2,11,1.3,12,2.5,9
2013/10/9 9:56,1.2,11,1.2,12,3.2,10
2013/10/9 9:57,1.2,11,1.2,12,2.6,11
2013/10/9 9:58,1.3,11,1.3,12,2.5,16
2013/10/9 9:59,1.4,11,1.4,12,3.3,11
2013/10/9 10:00,1.5,11,1.5,11,3.5,12
2013/10/9 10:01,1.4,11,1.6,11,1.8,13
2013/10/9 10:02,1.3,11,1.4,11,1.6,11
2013/10/9 10:03,1.2,11,1.3,11,1.4,13
2013/10/9 10:04,1.3,11,1.3,11,2.1,10
2013/10/9 10:05,1.3,11,1.3,11,2.2,9
2013/10/9 10:06,1.2,11,1.3,11,1.6,15
2013/10/9 10:07,1.3,11,1.3,11,3.8,10
2013/10/9 10:08,1.4,11,1.4,11,3.9,11
2013/10/9 10:09,1.4,11,1.4,11,3.9,12
2013/10/9 10:10,1.3,11,1.4,11,1.4,13
2013/10/9 10:11,1.3,11,1.3,11,2.9,10
2013/10/9 10:12,1.3,11,1.3,11,1.3,9
2013/10/9 10:13,1.3,11,1.3,11,2.5,10
2013/10/9 10:14,1.4,11,1.4,11,3.1,9
2013/10/9 10:15,1.5,11,1.5,11,3.9,10
2013/10/9 10:16,1.6,11,1.6,11,3.7,10
2013/10/9 10:17,1.6,11,1.7,11,3.3,10
2013/10/9 10:18,1.6,10,1.7,11,3.3,10
2013/10/9 10:19,1.4,11,1.5,11,1.5,16
2013/10/9 10:20,1.4,10,1.4,11,2,10
2013/10/9 10:21,1.3,10,1.4,11,3.2,8
2013/10/9 10:22,1.4,10,1.4,11,2.7,8
2013/10/9 10:23,1.4,10,1.4,11,3.7,9
2013/10/9 10:24,1.6,11,1.6,11,4.8,9
2013/10/9 10:25,1.6,11,1.6,11,3.9,10
2013/10/9 10:26,1.6,11,1.6,11,4.7,10
2013/10/9 10:27,1.5,10,1.6,11,2.9,10
2013/10/9 10:28,1.7,10,1.7,10,5.1,9
2013/10/9 10:29,2,10,2,10,4.8,10
2013/10/9 10:30,2.3,10,2.3,10,7.6,9
2013/10/9 10:31,2.4,10,2.4,10,8.1,10
2013/10/9 10:32,2.4,10,2.4,10,4.3,10
2013/10/9 10:33,2.5,10,2.5,10,4.4,10
2013/10/9 10:34,2.3,10,2.5,10,3.2,9
2013/10/9 10:35,2.3,10,2.3,10,3.7,10
2013/10/9 10:36,2.5,10,2.5,10,6.2,11
2013/10/9 10:37,2.6,10,2.6,10,4.4,11
2013/10/9 10:38,2.5,10,2.6,10,4.4,10
2013/10/9 10:39,2.6,10,2.6,10,5.5,10
2013/10/9 10:40,2.5,10,2.5,10,4.1,13
2013/10/9 10:41,2.4,10,2.4,10,4.4,10
2013/10/9 10:42,2.5,10,2.5,10,4.1,10
2013/10/9 10:43,2.5,10,2.5,10,4.1,11
2013/10/9 10:44,2.5,10,2.5,10,3.7,11
2013/10/9 10:45,2.5,11,2.5,10,3.1,12
2013/10/9 10:46,2.2,11,2.4,10,3.2,9
2013/10/9 10:47,2.1,11,2.2,10,3.8,9
2013/10/9 10:48,2.1,11,2.2,10,4.7,11
2013/10/9 10:49,2,11,2.1,10,4.2,10
2013/10/9 10:50,1.8,11,1.9,10,2,11
2013/10/9 10:51,1.6,11,1.8,10,1.9,8
2013/10/9 10:52,1.8,11,1.8,10,4.5,9
2013/10/9 10:53,1.9,11,1.9,10,4.8,9
2013/10/9 10:54,1.9,11,1.9,10,4.2,10
2013/10/9 10:55,2,11,2,11,4.8,9
2013/10/9 10:56,2.1,11,2.1,11,4.1,11
2013/10/9 10:57,2.1,11,2.1,11,4.1,11
2013/10/9 10:58,2.1,11,2.2,11,2.5,9
2013/10/9 10:59,2.1,11,2.1,11,4.8,11
2013/10/9 11:00,2.3,11,2.3,11,6.8,10
2013/10/9 11:01,2.6,11,2.6,11,4.9,11
2013/10/9 11:02,2.6,11,2.6,11,3.5,12
2013/10/9 11:03,2.5,11,2.6,11,2.7,10
2013/10/9 11:04,2.4,11,2.5,11,3.8,10
2013/10/9 11:05,2.3,11,2.4,11,4.1,10
2013/10/9 11:06,2.2,11,2.3,11,3.6,14
2013/10/9 11:07,2,11,2.1,11,1.6,16
2013/10/9 11:08,2.1,11,2.1,11,2.7,10
2013/10/9 11:09,2,11,2.1,11,2.7,10
2013/10/9 11:10,2,11,2.1,11,5.7,12
2013/10/9 11:11,2,11,2.1,11,6,10
2013/10/9 11:12,1.9,11,2,11,4.7,10
2013/10/9 11:13,2,11,2,11,4.7,10
2013/10/9 11:14,2,11,2,11,3.7,10
2013/10/9 11:15,2.1,11,2.1,11,5.4,12
2013/10/9 11:16,2.1,11,2.2,11,3.7,14
2013/10/9 11:17,2.3,11,2.3,11,4.7,12
2013/10/9 11:18,2.5,11,2.5,11,4.7,12
2013/10/9 11:19,2.7,11,2.7,11,5.8,10
2013/10/9 11:20,2.5,11,2.7,11,4.9,10
2013/10/9 11:21,2.4,11,2.5,11,2.5,9
2013/10/9 11:22,2.3,11,2.4,11,2.7,10
2013/10/9 11:23,2.1,12,2.3,11,2,14
2013/10/9 11:24,2,12,2.1,11,2.2,11
2013/10/9 11:25,2,12,2.1,11,4.3,11
2013/10/9 11:26,1.9,12,2,11,3.1,14
2013/10/9 11:27,2.1,12,2.1,11,5.2,10
2013/10/9 11:28,1.9,12,2.1,11,3.7,8
2013/10/9 11:29,1.9,12,1.9,11,4.3,13
2013/10/9 11:30,1.9,12,1.9,11,3.2,12
2013/10/9 11:31,2,12,2,11,3.9,8
2013/10/9 11:32,2.1,12,2.1,11,6.1,9